STARLINK-30980, 58476

Orbit data source: Space-Track

STARLINK-30980, 58476 is a payload satellite owned by SpaceX/Seattle (US) in LEO that was launched on Sun, 03 Dec 2023 UTC via an FALCON 9 launch vehicle from the Air Force Eastern Test Range (AFETR). Payload-class satellites include a variety of spacecraft equipped with specific instruments for various scientific and technological missions. These include communications satellites like Starlink; space stations such as the ISS; scientific satellites like the Hubble; Earth observation satellites from companies like Planet Labs, Umbra, and HawkEye 360; GPS; miniature CubeSats for education and research; and military/defense satellites.

Loading next visibility...
Identifier
58476, 2023-186D
Orbit
LEO
Country
Flag of USUS
Related business
Manufacturer
SpaceX/Seattle
Mission
Operational Commercial Communications
Bus & Motor
STARLINK V2M, Unknown motor
Mass
730 kg wet, ~700 kg dry
Launch date (UTC)
2023-12-03 (3 years ago)
Launch vehicle
FALCON 9
Launch site
Air Force Eastern Test Range (AFETR)
Object type
Payload
Rocket body
Debris
Shape & HBR
Box + 2 Pan, 17.7 m
Radar Cross Section
33.884 m², Large (>1 m²)

Expand to show TLE details & history
Last TLE update: 3 days ago

TLE from 3 days ago
0 STARLINK-30980
1 58476U 23186D   26170.16948397  .00013248  00000-0  48999-3 0  9993
2 58476  42.9997 214.1721 0001080 263.0902  96.9826 15.27586432141370
Epoch: 2026-06-19T04:04Z
TLE epoch observation values (Epoch: 2026-06-19T04:04:03.415Z)
Latitude
-0.00005°
Longitude
-114.2445°
Altitude
482.895 km
Speed
7.626 km/s
True Right ascension
14h 16m 41s
True Declination
0° 00' 00"
Sunlit
Object was in full shadow at epoch
Visualization orbit readout
Latitude
Unknown
Longitude
Unknown
Altitude
Unknown
Speed
Unknown
Apparent Right ascension
Unknown
Apparent Declination
Unknown
Sunlit
N/A
Visualization observer readout
Local Sidereal Time
21:29:13
Azimuth
Unknown
Elevation
Unknown
Doppler factor
Unknown
Orbital elements
Apogee altitude
485.716 km
Perigee altitude
484.234 km
Semi-major axis
6,863.112 km
Eccentricity
0.00011
Inclination
42.9997°
RAAN
214.1721°
Arg. of periapsis
263.0902°
True anomaly
96.99488°
Mean anomaly
96.9826°
Eccentric anomaly
96.98874°
Mean motion
3.81735 °/min
Orbital period
94.31 mins
BSTAR
0.00048999
Loading maneuver chart data...
Computing Atmospheric mass density...
Loading historical data...
Loading historical data...
Loading historical data...
Loading historical data...
Loading historical data...
Loading historical data...
Loading historical data...

Documentation

Showing up to 5 results
|